Belden, MS

1:49 PM CDT on August 30, 2016 (GMT -0500)
Tupelo Regional

Weather History for KTUP - October, 2011

Change the Weather History Date:

Thursday, October 27, 2011

  Actual Average Record
Temperature  
Mean Temperature 59 °F 60 °F  
Max Temperature 66 °F 72 °F 90 °F (1939)
Min Temperature 52 °F 47 °F 27 °F (1982)
Degree Days  
Heating Degree Days 6 7  
Month to date heating degree days 117 107  
Since 1 July heating degree days 125 119  
Cooling Degree Days 0 1  
Month to date cooling degree days 30 72  
Year to date cooling degree days 2259 2030  
Growing Degree Days 8 (Base 50)    
Moisture  
Dew Point 51 °F    
Average Humidity 80    
Maximum Humidity 89    
Minimum Humidity 71    
Precipitation  
Precipitation T in 0.13 in 1.94 in (1995)
Month to date precipitation 0.41 3.62  
Year to date precipitation 40.22 43.53  
Snow  
Snow 0.00 in 0.00 in 0.00 in (2002)
Month to date snowfall 0.0 0.0  
Since 1 July snowfall 0.0 0.0  
Since 1 September snowfall 0.0 0.0  
Snow Depth -    
Sea Level Pressure  
Sea Level Pressure 29.95 in    
Wind  
Wind Speed 9 mph (NNE)    
Max Wind Speed 18 mph    
Max Gust Speed 24 mph    
Visibility 9 miles    
Events      
T = Trace of Precipitation, MM = Missing Value Source: NWS Daily Summary

Daily Weather History Graph

Daily Weather History Graph

Search for Another Location

Airport or City:

Trip Planner

Search our weather history database for the weather conditions in past years. The results will help you decide how hot, cold, wet, or windy it might be!

Date:

Astronomy

Oct. 27, 2011 Rise Set
Actual Time 7:10 AM CDT 6:07 PM CDT
Civil Twilight 6:44 AM CDT 6:32 PM CDT
Nautical Twilight 6:15 AM CDT 7:02 PM CDT
Astronomical Twilight 5:45 AM CDT 7:31 PM CDT
Moon 8:07 AM CDT (10/27) 6:42 PM CDT (10/27)
Length of Visible Light 11h 48m
Length of Day
10h 56m
New Moon, 1% of the Moon is Illuminated
Oct 27
New Moon
Nov 2
First Quarter
Nov 10
Full
Nov 18
Last Quarter
Nov 25
New

Hourly Weather History & Observations

Time (CDT) Temp. Dew Point Humidity Pressure Visibility Wind Dir Wind Speed Gust Speed Precip Events Conditions
12:53 AM 59.0 °F 53.1 °F 81% 29.90 in 10.0 mi SSW 6.9 mph - N/A   Clear
1:53 AM 57.0 °F 53.1 °F 87% 29.90 in 10.0 mi SSW 6.9 mph - N/A   Clear
2:53 AM 55.0 °F 52.0 °F 89% 29.89 in 10.0 mi SSW 6.9 mph - N/A   Clear
3:53 AM 55.0 °F 52.0 °F 89% 29.88 in 10.0 mi SSW 5.8 mph - N/A   Scattered Clouds
4:53 AM 55.9 °F 52.0 °F 87% 29.88 in 10.0 mi SSW 5.8 mph - N/A   Partly Cloudy
5:53 AM 59.0 °F 52.0 °F 78% 29.88 in 10.0 mi SSW 4.6 mph - N/A   Clear
6:53 AM 57.0 °F 53.1 °F 87% 29.88 in 10.0 mi SSW 4.6 mph - N/A   Mostly Cloudy
7:53 AM 57.9 °F 54.0 °F 87% 29.89 in 10.0 mi SSW 4.6 mph - N/A   Partly Cloudy
8:53 AM 64.0 °F 55.0 °F 73% 29.91 in 10.0 mi West 3.5 mph - N/A   Scattered Clouds
9:04 AM 64.4 °F 55.4 °F 73% 29.92 in 10.0 mi West 3.5 mph - N/A   Mostly Cloudy
9:53 AM 64.9 °F 57.0 °F 75% 29.92 in 10.0 mi NW 8.1 mph - N/A   Overcast
10:53 AM 64.9 °F 55.0 °F 70% 29.93 in 10.0 mi NNW 8.1 mph - N/A   Overcast
11:53 AM 62.1 °F 55.0 °F 78% 29.94 in 10.0 mi NNE 13.8 mph - N/A   Overcast
12:11 PM 60.8 °F 53.6 °F 77% 29.95 in 10.0 mi North 12.7 mph - N/A   Overcast
12:53 PM 59.0 °F 52.0 °F 78% 29.96 in 10.0 mi NNE 11.5 mph - N/A   Overcast
1:53 PM 55.0 °F 51.1 °F 86% 29.97 in 4.0 mi NNE 16.1 mph 20.7 mph N/A   Overcast
2:17 PM 55.4 °F 51.8 °F 88% 29.96 in 3.0 mi NE 12.7 mph - 0.00 in   Overcast
2:23 PM 55.4 °F 51.8 °F 88% 29.96 in 3.0 mi NE 11.5 mph - 0.00 in   Overcast
2:44 PM 55.4 °F 51.8 °F 88% 29.97 in 10.0 mi NE 11.5 mph - 0.00 in   Overcast
2:53 PM 55.0 °F 51.1 °F 86% 29.96 in 10.0 mi NNE 10.4 mph - 0.00 in   Overcast
3:03 PM 55.4 °F 51.8 °F 88% 29.97 in 10.0 mi North 8.1 mph - N/A   Overcast
3:53 PM 54.0 °F 50.0 °F 86% 29.96 in 7.0 mi NE 11.5 mph - N/A   Overcast
4:02 PM 55.4 °F 50.0 °F 82% 29.96 in 10.0 mi ENE 12.7 mph - N/A   Overcast
4:15 PM 55.4 °F 48.2 °F 77% 29.97 in 10.0 mi NNE 11.5 mph - N/A   Overcast
4:53 PM 54.0 °F 48.9 °F 83% 29.98 in 10.0 mi NE 10.4 mph - N/A   Overcast
5:19 PM 53.6 °F 48.2 °F 82% 29.98 in 10.0 mi NNE 12.7 mph - N/A   Overcast
5:32 PM 53.6 °F 48.2 °F 82% 29.98 in 10.0 mi NE 13.8 mph - N/A   Overcast
5:53 PM 54.0 °F 48.0 °F 80% 29.98 in 10.0 mi NE 11.5 mph - N/A   Overcast
6:53 PM 54.0 °F 48.0 °F 80% 30.01 in 10.0 mi NE 12.7 mph - N/A   Overcast
7:26 PM 53.6 °F 46.4 °F 77% 30.03 in 10.0 mi NE 11.5 mph - N/A   Overcast
7:53 PM 53.1 °F 46.9 °F 80% 30.02 in 10.0 mi NE 13.8 mph - N/A   Overcast
8:53 PM 53.1 °F 46.0 °F 77% 30.02 in 10.0 mi NE 16.1 mph - N/A   Overcast
9:53 PM 53.1 °F 45.0 °F 74% 30.02 in 10.0 mi ENE 11.5 mph - N/A   Overcast
10:53 PM 53.1 °F 45.0 °F 74% 30.01 in 10.0 mi ENE 10.4 mph - N/A   Overcast
11:53 PM 52.0 °F 45.0 °F 77% 30.00 in 10.0 mi ENE 9.2 mph - N/A   Overcast